Regional Weather Roundup
Issued by NWS Kansas City/Pleasant Hill, MO

Home | Current Version | Previous Version | Graphics & Text | Print | Product List | Glossary Off
Versions: 1 2 3 4 5 6 7 8 9 10 11 12 13 14 15 16 17 18 19 20 21 22 23 24 25 26 27 28 29 30 31 32 33 34 35 36 37 38 39 40 41 42 43 44 45 46 47 48 49 50

000
ASUS43 KEAX 200410
RWREAX

WEATHER ROUNDUP FOR EASTERN KANSAS AND NORTHWEST MISSOURI
NATIONAL WEATHER SERVICE KANSAS CITY/PLEASANT HILL MO
1100 PM CDT FRI SEP 19 2014

KSZ040-057-103>105-MOZ028-029-037-043-200500-
...KANSAS CITY METROPOLITAN AREA...

CITY           SKY/WX    TMP DP  RH WIND       PRES   REMARKS
K.C. INTL      CLEAR     69  67  93 S9        29.95S
K.C. DOWNTOWN  CLEAR     72  67  84 S7        29.95S
LEES SUMMIT    CLEAR     70  67  90 S8        29.97S
OLATHE - IXD   CLEAR     68  66  93 S8        29.97R
OLATHE - OJC   CLEAR     68  66  93 S6        29.96S
LAWRENCE       CLEAR     71  66  84 S8        29.94S HAZE

$$

MOZ001>008-011>017-020>025-030>033-038>040-044>046-053-054-200500-
...NORTHERN AND CENTRAL MISSOURI...

CITY           SKY/WX    TMP DP  RH WIND       PRES   REMARKS
ST. JOSEPH     CLEAR     70  67  90 S8        29.93S
MOSBY          CLEAR     68  66  94 SE3       29.95S
WHITEMAN AFB   CLEAR     67  64  91 S8        29.97R
CLINTON        CLEAR     68  66  94 CALM      29.99R
SEDALIA        CLEAR     68  63  84 S9        29.99S
WARSAW         NOT AVBL
MARSHALL       CLEAR     70  66  88 S6        29.98S
CHILLICOTHE      N/A     70  65  84 S5        29.96R
MOBERLY        CLEAR     66  61  82 S7        29.99S
KIRKSVILLE     CLEAR     66  61  84 S6        29.97S

$$

MOZ041-047>049-056>058-063>065-088>090-097-200500-
...EASTERN AND SOUTHERN MISSOURI...

CITY           SKY/WX    TMP DP  RH WIND       PRES   REMARKS
ST. LOUIS INTL PTCLDY    71  58  63 S7        30.02S
SPIRIT OF STL  CLEAR     66  59  78 S5        30.00S
COLUMBIA       CLEAR     64  61  90 S7        30.01R
JEFFERSON CITY CLEAR     64  61  90 CALM      30.00R
MEXICO         CLEAR    N/A N/A N/A S6        29.99S
HANNIBAL       CLEAR     64  57  77 S5        29.99S
ROLLA          CLEAR     66  61  84 S8        30.01S HAZE
LEBANON        CLEAR     64  61  88 S6        30.04S
OSAGE BEACH    CLEAR     64  61  88 CALM      30.01S
SPRINGFIELD    PTCLDY    68  63  84 SE8       30.02R
BRANSON        CLEAR     66  64  94 CALM      30.05S
NEVADA         CLEAR     66  64  94 S6        30.01R FOG
JOPLIN         CLEAR     69  67  93 CALM      30.01R
WEST PLAINS    CLEAR     66  63  90 CALM      30.07R

$$

IAZ060-094-KSZ022-034>040-054-083-096-NEZ052-066-093-200500-
...KANSAS...SOUTHEAST NEBRASKA AND IOWA...

CITY           SKY/WX    TMP DP  RH WIND       PRES   REMARKS
TOPEKA         PTCLDY    72  69  90 S10       29.95R
MANHATTAN      PTCLDY    73  69  87 S9        29.92R
EMPORIA        PTCLDY    68  67  96 S16       29.95S FOG
CHANUTE        CLEAR     66  66 100 SE5       29.99R FOG
WICHITA        PTCLDY    73  68  84 S12       29.95S
OMAHA          PTCLDY    75  68  78 S17       29.81S
LINCOLN        CLEAR     76  69  79 S20       29.83F
FALLS CITY     CLEAR     71  68  90 S14       29.90R
LAMONI         CLEAR     68  65  90 S16G23    29.90F
DES MOINES     PTCLDY    70  66  87 S16       29.83F

$$



USA.gov is the U.S. government's official web portal to all federal, state and local government web resources and services.